SWIATOWID

Last updated on Mon Mar 15 2021 00:02:11 GMT+0000 (Coordinated Universal Time)

1 44426U 98067QL 21073.23590850 .07171462 12074-4 12707-2 0 9990 2 44426 51.6198 29.3922 0007231 188.0333 310.3019 16.31812792 96965

Satellite not in orbit